GFSFLT2_sfc_rhum_225.txt.gz
RH
73 72 80 94 95 94 94 94 95 96 96 96 95 94 93 93 93 93 92 91 90 88 88 87 86 84 81 80 86 78 50 47
78 78 74 76 78 95 95 94 94 95 95 96 96 94 93 93 94 94 92 90 88 88 88 86 86 82 82 82 84 75 50 49
80 79 78 79 75 79 92 93 94 94 91 95 93 66 71 75 78 94 92 90 89 89 88 88 86 83 85 87 83 38 42 48
76 79 77 78 66 74 74 70 67 68 69 75 67 73 69 64 76 94 93 92 90 90 89 89 82 51 53 70 43 44 45 48
70 78 79 74 67 68 69 69 70 72 75 74 71 71 74 67 66 67 68 84 61 69 68 58 58 55 55 56 49 53 47 46
66 68 78 79 66 68 67 69 71 68 69 78 74 70 73 70 65 67 70 61 64 63 58 62 65 63 63 60 56 54 48 50
69 70 75 77 78 68 69 70 73 66 70 74 67 62 72 65 70 73 65 64 62 63 62 61 62 64 64 64 57 56 59 52
70 72 75 74 76 77 73 72 72 72 68 67 75 62 66 64 68 68 66 66 62 59 60 60 60 61 64 66 60 54 58 60
70 76 77 78 78 76 73 70 72 69 67 74 75 68 70 68 64 67 65 66 71 69 69 66 65 63 65 61 57 55 54 61
60 63 75 79 77 74 70 69 71 68 67 69 76 72 69 69 62 63 63 68 66 67 66 64 64 62 62 58 54 54 54 59
60 65 68 74 75 72 72 73 72 66 67 67 74 74 71 66 59 60 69 65 68 66 68 68 62 63 61 59 58 53 55 50
56 64 66 71 68 71 68 68 69 66 67 66 71 71 74 72 61 65 69 62 64 66 69 67 64 61 55 55 60 60 60 62
59 67 71 69 67 69 68 72 70 67 65 69 71 72 75 74 64 69 71 64 64 70 68 72 70 71 77 68 68 70 68 62
57 64 68 69 63 64 60 63 63 63 65 69 71 72 75 72 71 68 70 64 70 73 74 74 73 77 72 71 75 73 79 75
50 61 66 69 65 64 64 65 66 70 68 69 71 72 74 77 72 70 72 70 66 75 77 79 73 80 75 68 86 81 75 79
43 50 62 68 69 67 70 66 68 64 64 63 65 71 71 75 75 73 74 71 70 70 72 79 82 83 89 85 78 75 82 79
40 42 57 65 70 68 69 68 62 65 73 72 76 77 73 72 76 77 77 76 76 75 79 82 77 76 82 82 88 86 86 90
54 50 52 65 73 72 75 73 69 75 80 81 82 81 80 76 75 79 80 78 79 79 80 81 84 83 78 80 80 83 92 95
38 52 60 68 76 75 75 73 74 76 77 81 83 85 88 84 82 86 83 83 81 81 83 84 85 86 87 83 85 80 85 88
42 40 57 69 78 78 77 75 69 69 71 76 82 82 84 81 84 83 82 81 82 84 86 89 89 93 88 88 88 88 87 86

GFSFLT2_sfc_rhum_231.txt.gz
RH
49 55 71 94 94 94 94 94 94 94 94 94 93 92 92 91 90 90 91 91 90 89 89 87 84 81 77 76 70 75 52 27
53 54 55 59 66 95 94 94 95 94 95 95 94 92 92 92 90 90 91 91 89 88 88 86 83 80 77 76 66 74 41 28
53 54 54 57 52 66 92 94 94 95 90 95 90 50 58 70 66 90 90 90 89 87 87 87 86 81 78 78 79 34 30 29
49 52 52 54 40 54 58 55 58 59 57 66 51 45 44 42 61 91 90 90 88 88 87 88 85 41 45 72 40 32 33 30
44 51 54 50 40 45 42 43 45 49 53 56 51 42 44 39 46 56 55 80 56 66 64 54 48 42 33 38 33 34 30 28
39 42 50 54 36 40 38 36 40 42 43 56 51 43 45 42 36 44 48 42 48 48 46 50 47 44 42 40 42 39 29 28
39 41 50 50 50 38 39 39 39 38 40 47 44 41 49 42 39 37 40 37 40 41 41 41 44 44 44 46 45 43 39 33
38 38 50 47 49 50 44 44 41 38 38 40 52 40 46 41 40 37 35 36 36 38 38 38 41 43 47 48 46 43 40 40
39 44 48 53 56 50 45 40 40 41 37 49 52 46 48 47 39 40 37 38 46 43 45 41 40 41 46 44 46 48 44 41
34 33 43 54 54 49 43 40 44 40 40 39 51 50 46 50 38 40 37 39 38 42 42 41 42 41 45 41 41 43 46 46
30 41 41 52 54 48 48 50 44 41 40 37 50 51 48 46 40 38 45 38 40 42 43 45 41 41 38 39 41 37 39 33
26 39 44 51 47 49 43 42 43 41 40 39 46 48 53 51 42 45 44 38 38 39 48 43 42 39 30 32 41 39 39 38
24 37 47 43 45 46 45 46 44 43 39 44 46 48 56 56 49 48 48 44 45 50 49 53 45 45 43 41 39 44 48 42
25 30 43 45 42 41 40 41 40 40 41 44 46 49 55 56 57 49 50 46 54 54 56 49 48 46 49 47 50 46 46 51
24 31 38 45 44 42 41 41 41 41 42 43 45 49 54 60 59 57 54 54 51 59 59 61 51 50 54 50 51 52 46 44
24 27 33 41 49 43 48 43 43 40 44 42 44 51 53 57 62 61 62 54 58 58 56 61 63 56 52 50 58 56 53 53
24 25 26 34 45 52 47 50 44 41 43 49 52 53 55 54 61 64 66 60 63 63 63 66 59 61 54 53 62 60 65 65
23 28 25 26 38 52 57 55 52 44 45 47 48 50 54 59 59 66 67 65 65 64 66 66 67 63 60 58 54 61 65 65
18 21 27 28 33 46 58 57 57 56 50 47 50 50 54 62 65 68 67 69 67 66 68 69 68 68 69 61 58 58 57 68
19 21 28 31 33 41 51 57 50 51 50 44 47 48 52 58 67 67 68 68 69 69 66 66 70 71 74 70 63 66 67 69

GFSFLT2_sfc_rhum_234.txt.gz
RH
73 82 88 95 95 94 94 94 94 94 93 94 93 92 92 92 92 91 91 92 90 90 88 86 82 79 78 73 75 79 78 55
70 76 83 86 89 95 94 94 94 94 94 94 94 92 92 91 91 92 92 92 89 90 88 86 82 79 77 75 77 81 65 48
68 70 73 79 79 84 94 93 94 94 93 94 97 75 83 88 82 92 92 91 89 88 88 86 85 81 79 77 78 58 46 46
63 67 67 69 50 80 81 78 82 82 79 89 74 72 70 64 73 92 92 91 89 88 87 87 87 68 72 81 71 53 49 51
58 66 68 63 50 71 68 69 72 74 74 80 74 61 66 64 82 79 88 90 82 85 86 80 70 66 60 63 56 56 50 48
53 56 64 65 50 60 60 59 64 67 67 76 72 69 69 64 67 71 73 73 75 73 71 73 72 66 64 62 56 59 58 57
51 54 63 62 65 56 54 56 59 59 64 68 66 64 71 62 62 62 64 64 70 71 67 66 68 66 65 63 62 62 58 57
51 52 62 60 62 62 56 56 57 58 58 60 68 61 71 62 67 64 59 60 59 60 63 64 64 66 66 65 64 62 60 56
51 56 62 64 65 66 57 55 54 53 54 65 65 64 71 67 64 67 64 57 67 61 63 69 70 64 66 69 66 65 64 63
48 42 58 64 64 61 54 54 57 52 55 57 65 60 66 72 64 63 65 67 60 70 69 69 70 70 71 69 66 67 65 65
46 50 56 64 66 60 61 60 58 54 54 54 65 63 59 69 56 63 68 65 67 63 69 70 69 70 64 69 68 65 64 50
43 49 55 63 61 62 57 56 56 54 55 52 62 60 62 63 62 63 65 56 63 65 67 68 68 69 46 46 66 62 64 65
40 50 55 58 60 64 62 62 58 56 53 57 56 59 64 65 60 65 68 60 58 67 72 74 70 69 72 71 69 70 67 66
37 47 52 55 57 58 58 57 56 55 55 56 58 60 64 64 64 61 61 60 66 72 68 71 68 74 68 76 79 72 66 70
33 44 51 52 55 57 59 59 61 59 58 56 57 58 62 66 66 65 64 62 63 68 75 69 67 70 75 75 83 81 76 72
32 36 48 52 54 56 59 57 57 54 56 54 54 58 58 63 68 68 68 65 63 66 66 73 71 71 76 63 65 76 83 80
46 41 43 49 55 54 57 58 54 52 54 58 60 60 60 59 67 71 72 69 69 67 68 72 70 68 70 76 70 70 76 90
36 37 38 47 55 59 59 60 57 54 56 57 57 59 62 62 64 70 72 72 71 72 71 74 71 72 69 69 77 74 79 85
34 32 28 32 51 59 62 60 62 60 60 60 60 60 62 66 68 72 73 74 74 72 75 74 76 74 77 73 70 69 78 78
28 34 31 36 40 45 61 62 58 58 59 55 58 58 61 66 71 70 72 74 75 76 75 77 73 81 77 77 75 73 75 82

GFSFLT2_sfc_rhum_240.txt.gz
RH
84 90 94 96 96 96 95 94 95 95 95 96 95 95 95 94 93 93 94 93 91 88 86 84 81 78 78 79 81 82 81 74
83 83 91 96 96 96 96 95 95 95 95 96 96 95 95 95 94 94 93 92 89 88 87 82 79 78 78 82 86 85 74 72
84 83 86 97 96 94 95 95 95 95 95 95 96 98 97 96 97 96 94 93 90 89 87 84 83 80 84 88 90 73 61 65
90 86 88 97 86 95 97 94 96 97 96 96 98 98 98 94 96 96 95 93 92 91 90 89 89 91 89 87 81 73 66 70
97 92 91 96 88 98 98 98 99 99 98 98 98 95 99 99 99 98 99 95 97 96 96 97 93 94 88 85 80 73 70 71
95 96 97 95 92 96 95 97 98 99 98 97 98 98 98 99 99 99 99 99 98 98 99 97 96 89 84 80 78 75 75 75
86 90 95 90 96 91 94 93 96 94 97 95 92 94 91 93 95 98 98 99 98 98 98 95 95 90 85 82 79 77 75 76
76 79 84 80 86 88 88 87 90 92 92 92 88 85 85 80 89 91 96 97 97 94 93 92 91 91 87 83 79 78 74 74
72 75 75 74 79 80 80 81 84 86 85 89 89 83 87 77 84 86 86 86 92 95 96 95 96 90 86 84 80 76 75 70
69 63 71 71 77 75 69 74 81 79 80 84 86 82 82 86 75 84 83 82 83 85 86 91 90 91 85 84 78 80 75 74
70 67 71 70 67 73 68 69 74 72 76 78 82 81 79 79 76 76 85 80 80 78 84 79 80 85 81 85 83 84 80 65
66 67 70 69 65 78 71 68 69 68 72 71 75 77 78 82 79 83 81 78 77 80 76 82 82 70 64 67 81 84 83 83
63 67 72 71 67 71 82 73 72 70 65 67 71 73 76 76 76 85 80 76 76 76 78 87 80 89 86 89 87 83 82 79
60 63 70 70 66 63 65 76 69 68 68 64 69 72 73 72 70 77 76 74 83 83 80 92 77 90 85 91 88 80 80 76
56 59 67 68 65 66 73 77 88 84 77 71 67 71 72 72 69 69 75 73 74 77 77 77 71 95 83 80 94 90 88 84
51 54 62 66 66 68 68 66 70 70 68 68 69 70 75 75 69 70 72 73 70 73 72 71 73 74 95 75 84 84 82 83
47 52 57 63 66 67 68 65 61 60 67 70 72 76 72 73 76 74 72 74 71 69 73 80 73 66 76 94 80 84 92 90
45 51 55 61 66 66 71 67 66 68 72 72 72 73 78 75 75 75 74 72 72 74 73 74 72 74 66 73 76 79 75 87
44 50 57 60 67 67 70 69 69 70 73 72 70 72 75 76 77 78 77 76 74 73 77 75 75 72 74 72 74 67 65 75
45 53 58 60 66 68 68 66 68 68 68 67 70 70 71 70 76 74 76 75 78 79 78 78 73 78 70 73 68 72 78 75

GFSFLT2_sfc_rhum_246.txt.gz
RH
89 96 95 95 95 95 95 95 96 96 96 96 95 95 94 94 94 94 93 92 88 86 85 83 82 80 78 77 79 80 78 83
87 98 97 97 97 96 96 95 96 96 96 96 95 94 95 94 94 94 92 89 88 86 84 82 80 79 78 81 86 86 77 74
84 97 98 98 98 96 95 95 96 96 96 96 97 97 97 96 97 95 92 91 89 86 84 84 82 78 83 88 89 80 74 70
84 92 98 96 94 97 98 97 98 98 98 98 99 99 99 97 97 96 94 92 90 88 88 87 86 88 87 86 82 77 74 71
94 96 92 85 94 96 96 96 96 98 99 99 99 99 97 96 99 100 99 95 97 95 95 95 93 93 90 88 84 83 80 75
87 83 81 77 91 92 86 87 85 86 92 99 99 97 94 92 94 91 97 99 97 98 98 96 95 93 92 89 86 84 83 82
90 80 75 75 87 87 85 85 85 87 86 97 99 99 94 92 94 90 90 100 98 98 98 97 96 94 93 91 88 85 83 82
92 86 78 74 83 87 85 88 90 88 86 91 97 98 99 99 100 96 93 99 99 98 97 97 96 94 93 91 88 86 83 83
94 90 80 78 81 85 89 88 86 86 89 97 96 96 97 97 98 99 99 100 99 99 98 97 97 93 94 93 91 88 86 84
91 85 81 81 82 87 93 91 91 95 98 98 96 95 95 97 98 98 99 99 99 99 99 98 98 97 95 94 92 91 88 86
79 89 93 86 91 94 95 96 96 94 97 97 96 94 92 92 89 94 98 98 98 97 98 96 97 97 96 94 94 91 87 76
68 78 84 94 93 97 96 97 93 92 93 92 94 92 91 91 90 94 95 96 97 98 96 98 94 91 78 77 92 89 89 88
69 73 76 87 89 93 92 94 92 92 88 86 89 89 92 91 87 94 92 92 91 94 95 96 96 93 89 90 89 83 81 78
67 68 69 78 72 74 72 76 81 82 83 83 85 87 89 88 84 89 91 88 94 96 93 97 93 94 92 93 91 85 87 84
64 66 66 69 64 66 78 83 93 83 83 80 80 81 83 86 85 82 88 85 87 92 91 90 88 98 90 84 92 92 91 82
60 62 67 67 65 63 67 68 71 66 67 69 70 78 77 80 80 83 86 86 83 87 87 86 86 90 98 84 87 84 81 81
53 60 65 65 69 60 63 62 61 58 64 69 74 80 76 75 79 80 80 83 81 80 89 90 87 81 88 98 92 88 91 83
26 54 64 66 70 68 64 62 60 64 70 74 78 76 81 78 78 79 80 80 81 82 83 89 84 86 80 86 80 92 91 93
59 40 60 66 69 73 65 64 61 62 66 73 76 79 82 80 80 82 80 80 80 81 84 86 87 84 84 80 81 76 71 84
48 68 60 64 69 74 70 64 63 62 64 69 73 75 76 80 82 79 81 80 82 85 84 84 83 87 83 83 78 79 78 75

GFSFLT2_sfc_rhum_249.txt.gz
RH
74 72 81 94 95 94 95 95 96 96 95 95 95 94 94 93 93 93 92 91 90 88 87 87 86 83 79 76 77 79 50 47
81 76 74 76 78 95 94 95 96 96 96 95 94 94 94 94 94 93 92 89 87 86 85 84 82 79 78 79 83 81 44 46
79 81 77 78 74 78 91 94 95 96 92 94 92 62 71 78 80 93 90 89 86 85 83 83 82 79 80 84 85 43 43 41
76 80 76 76 65 73 72 70 69 71 72 75 66 71 67 62 78 94 91 90 88 86 85 87 80 46 49 73 45 48 45 44
73 79 78 72 64 67 66 67 70 73 76 76 75 72 73 66 66 67 67 82 58 66 65 52 54 51 50 53 50 53 45 46
71 74 77 74 64 66 66 65 68 70 76 80 78 84 83 78 74 69 74 60 61 59 55 60 64 61 61 59 58 52 46 48
74 78 76 72 74 67 67 68 69 66 74 84 71 77 81 78 77 68 69 66 61 61 60 61 62 63 63 64 60 59 57 51
74 74 73 68 71 78 70 70 68 69 67 76 79 70 72 75 81 73 66 75 62 58 58 60 60 61 63 64 62 58 56 56
74 75 72 72 74 80 73 68 69 68 66 74 83 72 74 72 70 71 66 73 71 68 67 64 62 61 63 59 58 59 54 56
67 67 72 74 74 75 75 70 71 67 67 70 80 73 71 71 62 63 62 66 63 64 62 61 60 58 58 54 52 54 55 56
61 70 72 73 75 75 79 78 76 67 68 67 74 73 71 68 59 59 67 62 64 62 63 64 54 56 54 52 53 50 49 43
56 66 70 75 69 74 79 78 78 71 69 67 70 68 73 72 62 66 68 59 60 61 64 62 60 55 49 48 55 54 53 51
56 66 72 70 69 74 82 83 78 73 67 70 71 70 72 73 63 67 69 62 61 66 64 67 62 66 65 58 58 60 62 53
59 61 67 72 63 64 63 66 66 66 66 69 71 72 72 71 70 66 67 61 68 69 71 64 64 65 60 62 57 46 55 59
58 61 62 68 65 62 63 58 62 69 69 69 69 71 71 75 72 69 71 69 65 73 73 73 61 69 70 56 63 56 56 53
51 55 62 64 67 62 67 60 59 56 60 60 62 69 71 72 74 72 72 70 69 68 68 72 71 65 72 66 64 57 53 46
53 57 52 63 66 66 65 64 52 47 52 60 66 66 72 68 72 72 73 69 71 71 74 77 67 64 66 65 72 65 69 67
47 52 59 55 66 70 69 69 61 54 55 59 59 59 65 70 68 72 72 69 71 70 73 75 73 70 62 64 60 60 64 69
44 45 51 62 66 70 70 69 69 65 62 61 60 58 61 70 71 72 68 71 68 69 72 73 75 71 74 64 63 61 56 58
46 47 47 52 68 71 71 66 61 62 60 58 60 59 61 67 72 70 70 69 72 72 70 70 73 77 76 74 62 64 62 62

GFSFLT2_sfc_rhum_252.txt.gz
RH
52 56 71 96 95 95 95 95 95 94 94 94 94 92 91 91 91 90 90 90 90 90 89 88 87 85 80 76 77 71 40 33
57 57 57 61 66 96 96 96 96 95 95 96 95 93 93 93 93 92 91 91 89 88 87 87 85 82 78 78 79 75 35 35
59 57 57 59 56 67 92 96 96 95 90 94 90 49 62 72 70 93 91 89 88 86 86 85 84 80 78 78 82 34 33 32
57 59 56 56 44 55 59 57 58 60 58 64 46 46 47 45 64 92 90 89 87 86 85 84 80 37 41 70 39 35 36 33
51 61 58 54 45 45 44 46 47 51 56 57 46 46 48 44 47 54 53 77 48 59 57 46 43 36 33 37 35 40 32 32
48 51 57 58 41 43 41 40 42 45 48 58 50 50 50 45 38 40 44 39 39 40 36 42 41 43 43 43 45 39 32 33
47 51 57 55 54 44 44 44 44 42 46 54 47 46 50 43 43 39 40 37 38 39 37 38 42 43 43 46 44 44 42 36
47 52 60 54 55 55 49 48 44 45 43 47 56 46 48 45 45 42 40 39 38 38 38 39 40 40 42 45 44 39 38 40
47 56 60 59 59 56 53 46 48 46 43 51 58 53 52 52 44 44 39 39 46 43 43 42 40 40 44 40 41 42 37 38
39 44 52 59 57 52 51 47 49 46 45 44 55 55 52 56 44 45 39 40 44 42 42 42 42 40 41 37 35 37 36 38
37 47 50 55 57 52 53 58 51 46 45 43 51 56 52 52 43 39 44 41 41 39 40 41 37 38 34 35 35 33 34 30
36 40 49 52 50 54 48 51 55 49 45 44 49 50 54 53 45 44 44 41 40 39 43 39 40 34 28 28 32 31 31 31
38 41 48 47 47 47 48 50 52 58 48 49 52 51 53 56 48 46 49 46 43 46 45 50 41 42 40 39 36 39 44 38
41 43 46 48 46 45 41 40 44 48 50 49 52 54 56 53 55 45 47 46 51 51 52 45 41 39 45 39 39 33 32 40
40 43 45 48 50 48 48 45 44 45 47 46 48 54 54 58 54 54 52 51 45 58 56 58 43 41 50 42 40 37 28 30
37 40 45 43 50 53 56 51 50 44 43 42 44 51 54 56 60 56 60 51 55 52 51 57 57 45 46 52 55 42 38 36
36 37 41 48 55 62 57 57 50 46 44 47 50 51 54 52 57 61 63 59 59 61 59 62 51 52 44 46 54 49 53 52
35 36 36 43 54 66 73 65 58 53 48 45 45 45 47 54 54 62 65 61 62 58 62 61 61 55 49 46 43 44 46 47
34 34 34 44 54 58 77 82 72 65 59 52 49 46 48 52 58 64 60 63 61 59 62 64 63 61 63 49 44 43 39 38
36 39 40 46 48 58 63 77 82 74 66 57 53 49 48 55 58 60 61 59 59 62 59 59 63 64 68 61 48 44 43 46